Weather History for Sparta, IL

Change the Weather History Date:

Wednesday, October 9, 2013

  Actual Average (KBLV) Record (KBLV)
Temperature  
Mean Temperature 58 °F -  
Max Temperature 73 °F 73 °F 91 °F (1980)
Min Temperature 42 °F 47 °F 32 °F (2000)
Degree Days  
Heating Degree Days 8    
Growing Degree Days 8 (Base 50)    
Moisture  
Dew Point 48 °F    
Average Humidity 82    
Maximum Humidity 100    
Minimum Humidity 46    
Precipitation  
Precipitation 0.00 in - - ()
Sea Level Pressure  
Sea Level Pressure 30.14 in    
Wind  
Wind Speed 1 mph (SE)    
Max Wind Speed 7 mph    
Max Gust Speed -    
Visibility 10 miles    
Events      
Averages and records for this station are not official NWS values.
T = Trace of Precipitation, MM = Missing Value Source: NWS Daily Summary

Daily Weather History Graph

Daily Weather History Graph

Search for Another Location

Airport:

Trip Planner

Search our weather history database for the weather conditions in past years. The results will help you decide how hot, cold, wet, or windy it might be!

Date:

Astronomy

Oct. 09, 2013 Rise Set
Actual Time 7:02 AM CDT 6:29 PM CDT
Civil Twilight 6:35 AM CDT 6:55 PM CDT
Nautical Twilight 6:05 AM CDT 7:26 PM CDT
Astronomical Twilight 5:34 AM CDT 7:56 PM CDT
Moon 11:53 AM CDT (10/9) 10:07 PM CDT (10/9)
Length of Visible Light 12h 20m
Length of Day
11h 27m
Waxing Crescent, 25% of the Moon is Illuminated
Oct 9
Waxing Crescent
Oct 11
First Quarter
Oct 18
Full
Oct 26
Last Quarter
Nov 3
New

Hourly Weather History & Observations

Time (CDT) Temp. Dew Point Humidity Pressure Visibility Wind Dir Wind Speed Gust Speed Precip Events Conditions
12:15 AM 44.6 °F 44.6 °F 100% 30.14 in 10.0 mi Calm Calm - N/A   Clear
12:35 AM 44.6 °F 44.6 °F 100% 30.14 in 10.0 mi Calm Calm - N/A   Clear
12:55 AM 44.6 °F 44.6 °F 100% 30.14 in 10.0 mi Calm Calm - N/A   Clear
1:15 AM 44.6 °F 44.6 °F 100% 30.13 in 10.0 mi Calm Calm - N/A   Clear
1:35 AM 44.6 °F 42.8 °F 93% 30.13 in 10.0 mi Calm Calm - N/A   Clear
1:55 AM 44.6 °F 42.8 °F 93% 30.13 in 10.0 mi Calm Calm - N/A   Clear
2:15 AM 44.6 °F 42.8 °F 93% 30.13 in 10.0 mi Calm Calm - N/A   Clear
2:35 AM 44.6 °F 42.8 °F 93% 30.13 in 10.0 mi Calm Calm - N/A   Clear
2:55 AM 42.8 °F 42.8 °F 100% 30.12 in 10.0 mi Calm Calm - N/A   Clear
3:15 AM 42.8 °F 42.8 °F 100% 30.12 in 10.0 mi Calm Calm - N/A   Clear
3:35 AM 42.8 °F 42.8 °F 100% 30.12 in 10.0 mi Calm Calm - N/A   Clear
3:55 AM 42.8 °F 42.8 °F 100% 30.12 in 10.0 mi Calm Calm - N/A   Clear
4:15 AM 42.8 °F 42.8 °F 100% 30.12 in 10.0 mi Calm Calm - N/A   Clear
4:35 AM 42.8 °F 42.8 °F 100% 30.13 in 10.0 mi Calm Calm - N/A   Clear
4:55 AM 42.8 °F 42.8 °F 100% 30.14 in 10.0 mi Calm Calm - N/A   Clear
5:15 AM 42.8 °F 41.0 °F 93% 30.14 in 10.0 mi Calm Calm - N/A   Clear
5:35 AM 42.8 °F 42.8 °F 100% 30.15 in 10.0 mi Calm Calm - N/A   Clear
5:55 AM 42.8 °F 42.8 °F 100% 30.15 in 10.0 mi Calm Calm - N/A   Clear
6:15 AM 42.8 °F 42.8 °F 100% 30.15 in 10.0 mi Calm Calm - N/A   Clear
6:35 AM 42.8 °F 42.8 °F 100% 30.16 in 10.0 mi Calm Calm - N/A   Clear
6:55 AM 42.8 °F 41.0 °F 93% 30.16 in 10.0 mi Calm Calm - N/A   Clear
7:15 AM 42.8 °F 41.0 °F 93% 30.17 in 10.0 mi Calm Calm - N/A   Clear
7:35 AM 42.8 °F 42.8 °F 100% 30.17 in 10.0 mi Calm Calm - N/A   Clear
7:55 AM 44.6 °F 44.6 °F 100% 30.18 in 10.0 mi Calm Calm - N/A   Clear
8:15 AM 48.2 °F 46.4 °F 93% 30.19 in 10.0 mi Calm Calm - N/A   Unknown
8:35 AM 50.0 °F 46.4 °F 87% 30.19 in 10.0 mi Calm Calm - N/A   Clear
8:55 AM - - N/A% 30.19 in - Calm Calm - N/A   Unknown
9:15 AM 55.4 °F 50.0 °F 82% 30.19 in 10.0 mi ESE 3.5 mph - N/A   Clear
9:35 AM 57.2 °F 50.0 °F 77% 30.19 in 10.0 mi SE 3.5 mph - N/A   Clear
9:55 AM 59.0 °F 50.0 °F 72% 30.20 in 10.0 mi Calm Calm - N/A   Clear
10:15 AM 60.8 °F 50.0 °F 68% 30.20 in 10.0 mi Calm Calm - N/A   Clear
10:55 AM 64.4 °F 51.8 °F 64% 30.20 in 10.0 mi Calm Calm - N/A   Scattered Clouds
11:35 AM 66.2 °F 50.0 °F 56% 30.19 in 10.0 mi Calm Calm - N/A   Clear
11:55 AM 68.0 °F 48.2 °F 49% 30.18 in 10.0 mi SSE 3.5 mph - N/A   Clear
12:15 PM 69.8 °F 50.0 °F 49% 30.18 in 10.0 mi Calm Calm - N/A   Clear
12:35 PM 71.6 °F 50.0 °F 46% 30.17 in 10.0 mi Calm Calm - N/A   Clear
12:55 PM 69.8 °F 50.0 °F 49% 30.16 in 10.0 mi Calm Calm - N/A   Clear
1:35 PM 71.6 °F 51.8 °F 50% 30.14 in 10.0 mi ESE 4.6 mph - N/A   Clear
1:55 PM 71.6 °F 51.8 °F 50% 30.13 in 10.0 mi Calm Calm - N/A   Clear
2:15 PM 73.4 °F 51.8 °F 47% 30.13 in 10.0 mi East 5.8 mph - N/A   Clear
2:35 PM 71.6 °F 51.8 °F 50% 30.12 in 10.0 mi East 3.5 mph - N/A   Clear
2:55 PM 73.4 °F 51.8 °F 47% 30.12 in 10.0 mi South 5.8 mph - N/A   Clear
3:15 PM 73.4 °F 51.8 °F 47% 30.12 in 10.0 mi SSW 4.6 mph - N/A   Clear
3:55 PM 73.4 °F 53.6 °F 50% 30.11 in 10.0 mi SE 6.9 mph - N/A   Clear
4:15 PM 73.4 °F 53.6 °F 50% 30.10 in 10.0 mi South 5.8 mph - N/A   Clear
4:55 PM 73.4 °F 53.6 °F 50% 30.10 in 10.0 mi ESE 4.6 mph - N/A   Clear
5:15 PM 73.4 °F 53.6 °F 50% 30.10 in 10.0 mi SE 6.9 mph - N/A   Clear
7:15 PM 60.8 °F 53.6 °F 77% 30.10 in 10.0 mi Calm Calm - N/A   Clear
7:35 PM 59.0 °F 53.6 °F 82% 30.11 in 10.0 mi Calm Calm - N/A   Clear
7:55 PM 59.0 °F 53.6 °F 82% 30.11 in 10.0 mi Calm Calm - N/A   Mostly Cloudy
8:15 PM 59.0 °F 55.4 °F 88% 30.11 in 10.0 mi Calm Calm - N/A   Scattered Clouds
8:35 PM 57.2 °F 53.6 °F 88% 30.12 in 10.0 mi Calm Calm - N/A   Clear
8:55 PM 55.4 °F 53.6 °F 94% 30.12 in 10.0 mi Calm Calm - N/A   Clear
9:15 PM 55.4 °F 53.6 °F 94% 30.12 in 10.0 mi Calm Calm - N/A   Clear
9:35 PM 55.4 °F 53.6 °F 94% 30.12 in 10.0 mi Calm Calm - N/A   Clear
9:55 PM 53.6 °F 53.6 °F 100% 30.12 in 10.0 mi Calm Calm - N/A   Clear
10:15 PM 55.4 °F 53.6 °F 94% 30.12 in 10.0 mi Calm Calm - N/A   Clear
10:35 PM 55.4 °F 53.6 °F 94% 30.12 in 10.0 mi Calm Calm - N/A   Clear
10:55 PM 53.6 °F 53.6 °F 100% 30.12 in 10.0 mi Calm Calm - N/A   Clear
11:15 PM 53.6 °F 53.6 °F 100% 30.12 in 10.0 mi Calm Calm - N/A   Clear
11:55 PM 53.6 °F 51.8 °F 94% 30.12 in 10.0 mi Calm Calm - N/A   Clear